Smyrna, TN

1:37 AM CST on February 21, 2018 (GMT -0600)
Smyrna

Weather History for KMQY - November, 2013

Change the Weather History Date:

Wednesday, November 6, 2013

  Actual Average Record
Temperature  
Mean Temperature 63 °F -  
Max Temperature 73 °F 60 °F 78 °F (2005)
Min Temperature 52 °F 44 °F 27 °F (2010)
Degree Days  
Heating Degree Days 2    
Growing Degree Days 13 (Base 50)    
Moisture  
Dew Point 55 °F    
Average Humidity 78    
Maximum Humidity 100    
Minimum Humidity 51    
Precipitation  
Precipitation 0.26 in - - ()
Sea Level Pressure  
Sea Level Pressure 30.14 in    
Wind  
Wind Speed 7 mph (SW)    
Max Wind Speed 18 mph    
Max Gust Speed 26 mph    
Visibility 7 miles    
Events Rain    
Averages and records for this station are not official NWS values.
T = Trace of Precipitation, MM = Missing Value Source: NWS Daily Summary

Daily Weather History Graph

Daily Weather History Graph

Search for Another Location

Airport or City:

Trip Planner

Search our weather history database for the weather conditions in past years. The results will help you decide how hot, cold, wet, or windy it might be!

Date:

Astronomy

Nov. 06, 2013 Rise Set
Actual Time 6:13 AM CST 4:45 PM CST
Civil Twilight 5:46 AM CST 5:11 PM CST
Nautical Twilight 5:16 AM CST 5:42 PM CST
Astronomical Twilight 4:46 AM CST 6:12 PM CST
Moon 9:25 AM CST (11/6) 7:51 PM CST (11/6)
Length of Visible Light 11h 25m
Length of Day
10h 31m
Waxing Crescent, 14% of the Moon is Illuminated
Nov 6
Waxing Crescent
Nov 9
First Quarter
Nov 17
Full
Nov 25
Last Quarter
Dec 2
New

Hourly Weather History & Observations

Time (CST) Temp. Dew Point Humidity Pressure Visibility Wind Dir Wind Speed Gust Speed Precip Events Conditions
12:56 AM 54.9 °F 43.0 °F 64% 30.27 in 10.0 mi SSE 3.5 mph - N/A   Overcast
1:56 AM 56.8 °F 41.9 °F 57% 30.26 in 4.0 mi SSW 5.8 mph - N/A   Haze
2:56 AM 55.9 °F 41.0 °F 57% 30.24 in 5.0 mi South 4.6 mph - N/A   Haze
3:56 AM 55.9 °F 41.0 °F 57% 30.23 in 10.0 mi South 5.8 mph - N/A   Mostly Cloudy
4:41 AM 55.4 °F 37.4 °F 51% 30.20 in 10.0 mi South 8.1 mph - N/A   Overcast
4:56 AM 55.9 °F 37.9 °F 51% 30.22 in 10.0 mi South 8.1 mph - N/A   Mostly Cloudy
5:11 AM 53.6 °F 37.4 °F 54% 30.19 in 10.0 mi South 5.8 mph - N/A   Scattered Clouds
5:56 AM 54.0 °F 38.8 °F 57% 30.22 in 6.0 mi South 4.6 mph - N/A   Haze
6:03 AM 53.6 °F 39.2 °F 58% 30.19 in 10.0 mi South 4.6 mph - N/A   Mostly Cloudy
6:46 AM 57.2 °F 44.6 °F 63% 30.19 in 2.5 mi South 5.8 mph - N/A   Haze
6:56 AM 56.8 °F 45.9 °F 67% 30.22 in 10.0 mi South 5.8 mph - N/A   Overcast
7:56 AM 61.9 °F 52.9 °F 72% 30.21 in 10.0 mi SSW 10.4 mph - N/A   Mostly Cloudy
8:56 AM 64.9 °F 55.9 °F 73% 30.22 in 10.0 mi South 8.1 mph - N/A   Mostly Cloudy
9:56 AM 68.9 °F 57.9 °F 68% 30.20 in 10.0 mi SSW 15.0 mph - N/A   Mostly Cloudy
10:56 AM 70.0 °F 59.0 °F 68% 30.18 in 4.0 mi SSW 13.8 mph 19.6 mph N/A   Mostly Cloudy
11:22 AM 71.6 °F 57.2 °F 60% 30.15 in 5.0 mi South 15.0 mph 24.2 mph N/A   Mostly Cloudy
11:56 AM 73.9 °F 59.0 °F 59% 30.15 in 9.0 mi SSW 16.1 mph 26.5 mph N/A   Mostly Cloudy
12:56 PM 72.9 °F 57.9 °F 59% 30.11 in 6.0 mi South 16.1 mph 24.2 mph N/A   Mostly Cloudy
1:56 PM 72.0 °F 57.9 °F 61% 30.10 in 10.0 mi SSW 10.4 mph - N/A   Overcast
2:56 PM 70.9 °F 57.9 °F 63% 30.09 in 10.0 mi SW 6.9 mph - N/A   Overcast
3:56 PM 68.9 °F 59.0 °F 71% 30.08 in 10.0 mi SSW 3.5 mph - 0.00 in   Overcast
4:56 PM 68.9 °F 59.0 °F 71% 30.07 in 7.0 mi SSW 4.6 mph - 0.00 in   Overcast
5:56 PM 66.9 °F 61.0 °F 81% 30.10 in 7.0 mi West 5.8 mph - 0.00 in Rain Light Rain
6:15 PM 64.4 °F 62.6 °F 94% 30.08 in 4.0 mi Calm Calm - 0.02 in Rain Rain
6:26 PM 64.4 °F 64.4 °F 100% 30.08 in 4.0 mi NW 5.8 mph - 0.04 in Rain Rain
6:44 PM 64.4 °F 64.4 °F 100% 30.09 in 2.5 mi WNW 5.8 mph - 0.07 in Rain Rain
6:56 PM 63.9 °F 63.9 °F 100% 30.11 in 3.0 mi West 6.9 mph - 0.09 in Rain Rain
7:40 PM 62.6 °F 62.6 °F 100% 30.09 in 2.0 mi WSW 5.8 mph - 0.02 in Rain Light Rain
7:56 PM 63.9 °F 63.9 °F 100% 30.11 in 6.0 mi West 6.9 mph - 0.03 in Rain Light Rain
8:04 PM 64.4 °F 64.4 °F 100% 30.09 in 2.5 mi West 8.1 mph - 0.02 in Rain Light Rain
8:10 PM 64.4 °F 64.4 °F 100% 30.09 in 3.0 mi West 8.1 mph - 0.03 in Rain Light Rain
8:30 PM 62.6 °F 62.6 °F 100% 30.08 in 8.0 mi SSW 5.8 mph - 0.04 in Rain Light Rain
8:56 PM 63.9 °F 63.9 °F 100% 30.10 in 10.0 mi NW 4.6 mph - 0.04 in Rain Light Rain
9:23 PM 62.6 °F 62.6 °F 100% 30.09 in 9.0 mi Calm Calm - 0.01 in Rain Light Rain
9:56 PM 61.9 °F 61.9 °F 100% 30.11 in 9.0 mi West 3.5 mph - 0.02 in Rain Light Rain
10:14 PM 62.6 °F 62.6 °F 100% 30.08 in 6.0 mi Calm Calm - 0.00 in Rain Light Rain
10:56 PM 63.0 °F 63.0 °F 100% 30.11 in 7.0 mi WNW 5.8 mph - 0.01 in Rain Light Rain
10:59 PM 62.6 °F 62.6 °F 100% 30.08 in 6.0 mi WNW 6.9 mph - 0.00 in Rain Light Rain
11:04 PM 62.6 °F 62.6 °F 100% 30.08 in 5.0 mi NNW 5.8 mph - 0.02 in Rain Rain
11:56 PM 52.0 °F 50.9 °F 96% 30.15 in 5.0 mi NNW 18.4 mph 25.3 mph 0.07 in Rain Rain